Location: Fort Collins
(40.5850°N, 105.0840°W)
Time: 23:11:46
(UTC-06:00)

Cosmos 2297 Rocket - Visible Passes

Search period start: 22 October 2014 00:00
Search period end: 01 November 2014 00:00
Orbit: 839 x 845 km, 71.0° (Epoch: 22 October)

Date Brightness Start Highest point End Pass type
(mag) Time Alt. Az. Time Alt. Az. Time Alt. Az.
22 Oct 2.9 05:43:01 10° S 05:48:30 56° ESE 05:54:01 10° NNE visible
23 Oct 2.9 05:28:03 10° S 05:33:30 53° ESE 05:38:59 10° NNE visible
24 Oct 3.0 05:13:06 10° S 05:18:30 51° ESE 05:23:56 10° NNE visible
25 Oct 3.0 04:58:56 14° S 05:03:30 48° ESE 05:08:54 10° NE visible
25 Oct 3.2 06:43:10 10° WSW 06:47:47 26° NW 06:52:26 10° N visible
26 Oct 3.1 04:46:09 29° SSE 04:48:30 45° ESE 04:53:51 10° NE visible
26 Oct 3.1 06:28:05 10° WSW 06:32:44 27° NW 06:37:28 10° N visible
27 Oct 3.1 04:32:56 42° ESE 04:33:30 43° ESE 04:38:48 10° NE visible
27 Oct 3.1 06:14:50 19° W 06:17:41 28° NW 06:22:30 10° N visible
28 Oct 3.4 04:19:24 38° E 04:19:24 38° E 04:23:44 10° NE visible
28 Oct 3.0 06:01:17 26° W 06:02:38 29° NW 06:07:32 10° N visible
29 Oct 4.0 04:05:39 28° ENE 04:05:39 28° ENE 04:08:41 10° NE visible
29 Oct 3.0 05:47:32 31° WNW 05:47:35 31° WNW 05:52:33 10° N visible
30 Oct 4.4 03:51:45 20° NE 03:51:45 20° NE 03:53:37 10° NE visible
30 Oct 3.1 05:33:36 30° NW 05:33:36 30° NW 05:37:35 10° N visible
31 Oct 4.8 03:37:43 14° NE 03:37:43 14° NE 03:38:32 10° NE visible
31 Oct 3.5 05:19:34 26° NNW 05:19:34 26° NNW 05:22:36 10° N visible
